ROMMA est une association bénévole à but non lucratif. Votre soutien est indispensable : ADHERER à ROMMA ou FAIRE un DON

Le Versoud - (38, Isère)

Vallée du Grésivaudan (220 m)   Longitude: 05° 51' 44" E   Latitude: 45° 13' 06" N Station partenaire n°6
 

Détail journalier du     <<     >>

Température Precipitation Humidité Pression Vent Dir Rafale Dir. rafale Ensol.
Heure (°C) (mm) (%) (hPa) (km/h) (km/h) (min)
01:00 5.3078102800---0
02:00 4.6081102800---0
03:00 4.1082102800---0
04:00 3.4085102800---0
05:00 2.9086102800---0
06:00 2.4086102900---0
07:00 2.0089102900---0
08:00 2.6088102900---0
09:00 6.7076102900---35
10:00 9.3062102902ENE60
11:00 12.4051102905ENE60
12:00 14.5046102808ENE60
13:00 15.604010271E10E60
14:00 17.603510261SE8SSE60
15:00 19.2027102506SO60
16:00 20.4023102408NNO60
17:00 20.10261024010NNO60
18:00 19.40321024010N60
19:00 16.70421024011E35
20:00 13.70501025015SE0
21:00 11.8057102500---0
22:00 10.3061102500---0
23:00 9.4064102600---0
minuit 8.2070102600---0

Graphique du 29-03-2019

 

Serveur OMMA